Location: Maiden
(35.5760°N, 81.2120°W)
Time: 09:53:20
(UTC-04:00)

Tiros 1 despin weight - Visible Passes

Search period start: 04 August 2020 00:00
Search period end: 14 August 2020 00:00
Orbit: 594 x 642 km, 48.2° (Epoch: 03 August)

Date Brightness Start Highest point End Pass type
(mag) Time Alt. Az. Time Alt. Az. Time Alt. Az.
10 Aug ? 05:49:54 10° SE 05:51:03 11° SE 05:52:12 10° ESE visible
11 Aug ? 06:03:34 10° S 06:07:12 24° SE 06:10:49 10° E visible
13 Aug ? 04:56:28 11° SSE 04:58:48 16° SE 05:01:30 10° E visible
